TimeCDT,TemperatureF,Dew PointF,Humidity,Sea Level PressureIn,VisibilityMPH,Wind Direction,Wind SpeedMPH,Gust SpeedMPH,PrecipitationIn,Events,Conditions,WindDirDegrees,DateUTC
12:54 AM,41.0,37.9,89,29.96,10.0,Calm,Calm,-,N/A,,Clear,0,2012-10-16 05:54:00
1:54 AM,41.0,37.9,89,29.96,10.0,SE,3.5,-,N/A,,Clear,140,2012-10-16 06:54:00
2:54 AM,41.0,37.9,89,29.94,10.0,Calm,Calm,-,N/A,,Clear,0,2012-10-16 07:54:00
3:54 AM,42.1,39.0,89,29.91,10.0,SSE,4.6,-,N/A,,Mostly Cloudy,150,2012-10-16 08:54:00
4:54 AM,42.1,37.9,85,29.90,10.0,SE,6.9,-,N/A,,Partly Cloudy,140,2012-10-16 09:54:00
5:54 AM,44.1,39.0,82,29.88,10.0,SSE,8.1,-,N/A,,Clear,160,2012-10-16 10:54:00
6:54 AM,44.6,39.2,81,29.86,10.0,SE,8.1,-,N/A,,Scattered Clouds,140,2012-10-16 11:54:00
7:54 AM,45.0,39.9,82,29.88,10.0,SSE,11.5,-,N/A,,Mostly Cloudy,160,2012-10-16 12:54:00
8:54 AM,48.9,42.1,77,29.86,10.0,SE,9.2,-,N/A,,Mostly Cloudy,140,2012-10-16 13:54:00
9:54 AM,53.1,43.0,69,29.84,10.0,SSE,13.8,20.7,N/A,,Mostly Cloudy,160,2012-10-16 14:54:00
10:54 AM,59.0,45.0,60,29.79,10.0,SSE,19.6,29.9,N/A,,Mostly Cloudy,160,2012-10-16 15:54:00
11:54 AM,63.0,46.0,54,29.76,10.0,SSE,19.6,27.6,N/A,,Mostly Cloudy,160,2012-10-16 16:54:00
12:54 PM,66.9,46.0,47,29.69,10.0,SSE,26.5,38.0,N/A,,Partly Cloudy,160,2012-10-16 17:54:00
1:54 PM,69.1,48.0,47,29.63,10.0,SSE,20.7,28.8,N/A,,Scattered Clouds,160,2012-10-16 18:54:00
2:54 PM,71.1,48.9,45,29.59,10.0,South,25.3,34.5,N/A,,Scattered Clouds,180,2012-10-16 19:54:00
3:54 PM,71.1,51.1,49,29.57,10.0,South,27.6,33.4,N/A,,Mostly Cloudy,180,2012-10-16 20:54:00
4:54 PM,71.1,52.0,51,29.55,10.0,South,18.4,-,N/A,,Scattered Clouds,180,2012-10-16 21:54:00
5:54 PM,68.0,52.0,56,29.55,10.0,South,10.4,-,N/A,,Mostly Cloudy,170,2012-10-16 22:54:00
6:54 PM,66.0,53.1,63,29.53,10.0,SSE,13.8,-,N/A,,Mostly Cloudy,160,2012-10-16 23:54:00
7:54 PM,64.9,53.1,65,29.54,10.0,SSE,13.8,-,N/A,,Mostly Cloudy,150,2012-10-17 00:54:00
8:54 PM,64.0,53.1,67,29.53,10.0,South,16.1,23.0,N/A,,Scattered Clouds,170,2012-10-17 01:54:00
9:54 PM,62.1,53.1,72,29.53,10.0,South,10.4,-,N/A,,Mostly Cloudy,180,2012-10-17 02:54:00
10:54 PM,62.1,53.1,72,29.52,10.0,South,13.8,-,N/A,,Scattered Clouds,180,2012-10-17 03:54:00
11:54 PM,61.0,53.1,75,29.52,10.0,South,12.7,-,N/A,,Clear,180,2012-10-17 04:54:00